[[{"header":{"parameterUnit":"m.s-1","parameterCategory":2,"la1":30.2991,"la2":30.254,"lo1":-89.0895,"lo2":-89.0444,"dy":0.0017,"dx":0.0017,"nx":28,"ny":28,"refTime":"2025-08-14T03:00:00:Z","depth":"0","parameterNumber":2,"parameterNumberName":"U-component_of_CURRENTS"},"data":[0,0,0,0,0,0,0,0,0,0,0,0,0,0,0,0,0,0,0,0,0,0,0,0,0,0,0,0,0,0,0,0,0,0,0,0,0,0,0,0,0,0,0,0,0,0,0,0,0,0,0,0,0,0,0,0,0,0,0.2896,0.2897,0,0.2922,0.2922,0.2922,0.2912,0.2912,0.2912,0.2911,0.2879,0.2878,0.2878,0,0,0,0,0,0,0,0,0,0,0,0,0,0.2768,0.277,0.2896,0.2897,0.2898,0.2922,0.2922,0.2922,0.2912,0.2912,0.2911,0.2911,0.2879,0.2879,0.2878,0,0,0,0,0,0,0,0,0,0,0,0,0,0.2807,0.2771,0.2896,0.2899,0.29,0.2922,0.2922,0.2922,0.2912,0.2912,0.2911,0.2911,0.288,0.2879,0.2878,0.2874,0,0,0.2874,0.2874,0,0,0,0,0,0,0,0,0.2805,0.2811,0.2898,0.2899,0.29,0.2918,0.2865,0.2905,0.2912,0.2902,0.2911,0.2911,0.289,0.2888,0.2887,0.2873,0.2871,0.2874,0.2873,0.2873,0.2873,0,0,0,0,0,0,0,0.2802,0.2809,0.2901,0.2899,0.2901,0.2876,0.2882,0.2872,0.2892,0.2903,0.2903,0.2915,0.289,0.2888,0.2886,0.2871,0.2874,0.2873,0.2872,0.2872,0.2886,0.2887,0,0,0,0,0,0,0.2814,0.2808,0.29,0.2902,0.2857,0.288,0.2885,0.2908,0.2893,0.2893,0.2915,0.2914,0.289,0.2887,0.2885,0.2903,0.2873,0.2872,0.2871,0.2885,0.2886,0.2887,0,0,0,0,0,0,0.2811,0.2823,0.2899,0.2858,0.2867,0.2883,0.2908,0.2909,0.2912,0.2904,0.2901,0.2919,0.289,0.2886,0.2887,0.2901,0.2871,0.287,0.2884,0.2885,0.2887,0.2924,0,0,0,0,0,0,0.2808,0.2822,0.2834,0.286,0.287,0.2915,0.2909,0.291,0.2922,0.2921,0.2906,0.2903,0.2889,0.2889,0.2886,0.2899,0.2869,0.2882,0.2884,0.2886,0.2922,0.2927,0.2932,0,0,0,0,0,0.2803,0.2817,0.2834,0.2845,0.289,0.2916,0.2918,0.2924,0.2922,0.2925,0.2921,0.2903,0.29,0.2889,0.2885,0.2898,0.2881,0.2884,0.2886,0.292,0.2926,0.2931,0,0,0,0,0,0,0.2751,0.2819,0.2838,0.2868,0.2896,0.2916,0.2918,0.2928,0.2927,0.2927,0.2912,0.2909,0.2917,0.2904,0.2893,0.291,0.289,0.2891,0.2916,0.2922,0.2927,0.2911,0.2869,0,0,0,0,0,0.2754,0.2789,0.2839,0.286,0.2878,0.2901,0.291,0.2923,0.2932,0.2932,0.2925,0.2921,0.2924,0.292,0.2918,0.2921,0.2931,0.2929,0.2934,0.2938,0.2925,0.2959,0.2965,0.2895,0.2895,0.2895,0,0,0.2734,0.2779,0.2795,0.2853,0.2872,0.2894,0.2904,0.2927,0.2937,0.2928,0.2929,0.2936,0.293,0.294,0.2942,0.2929,0.2972,0.2941,0.2945,0.2929,0.2962,0.2969,0.2975,0.2897,0.2896,0.2896,0,0,0.2719,0.276,0.2787,0.2815,0.2865,0.2887,0.2898,0.2931,0.2937,0.2949,0.2952,0.2969,0.296,0.2968,0.2968,0.2997,0.2999,0.3001,0.3007,0.3041,0.3047,0.3052,0.3106,0.3116,0.3,0.3,0.3,0,0.2688,0.2743,0.2791,0.2821,0.2841,0.2885,0.2904,0.2919,0.2945,0.2956,0.2951,0.2974,0.2971,0.2994,0.3004,0.3007,0.3032,0.2985,0.3047,0.3052,0.3056,0.311,0.312,0.3002,0.3002,0.3002,0.3002,0,0.2702,0.2737,0.275,0.2813,0.2835,0.2861,0.2901,0.2925,0.2942,0.2958,0.2986,0.2996,0.3011,0.3021,0.3014,0.3053,0.3065,0.3053,0.303,0.3066,0.3121,0.3131,0.3005,0.3005,0.3004,0.3004,0,0,0.2652,0.2744,0.2746,0.2773,0.2838,0.2855,0.2887,0.293,0.2956,0.2976,0.3002,0.3017,0.3036,0.3038,0.3052,0.3074,0.3141,0.3074,0.3074,0.3125,0.3238,0.3323,0.3342,0.3142,0.3143,0.3144,0.3276,0,0.2646,0.2696,0.2747,0.2777,0.2804,0.2858,0.288,0.2921,0.2959,0.2995,0.3019,0.3045,0.3039,0.306,0.3084,0.3128,0.3163,0.3108,0.3197,0.32,0.3269,0.3355,0.3364,0.3488,0.3285,0.3286,0.3288,0,0.2645,0.2684,0.2714,0.2777,0.2792,0.2811,0.2874,0.2906,0.2971,0.2999,0.3041,0.3067,0.3116,0.3099,0.3189,0.3157,0.3195,0.3222,0.3228,0.3293,0.3303,0.3414,0.3513,0.3345,0.3302,0.3301,0.33,0,0.2591,0.2658,0.2682,0.27,0.2775,0.2793,0.2833,0.29,0.2936,0.301,0.3044,0.3105,0.3144,0.3194,0.3268,0.3231,0.3372,0.3332,0.3446,0.3454,0.347,0.3477,0.341,0.3387,0.3387,0.3386,0.3386,0,0.2571,0.2588,0.2656,0.2667,0.2693,0.2754,0.2795,0.2849,0.2927,0.2973,0.304,0.3091,0.3165,0.3256,0.3301,0.3436,0.341,0.347,0.3499,0.3489,0.3496,0.3355,0.3267,0.3391,0.339,0.3389,0.3388,0,0.2509,0.2559,0.2587,0.2652,0.2669,0.2685,0.2765,0.2796,0.2884,0.2953,0.2977,0.3096,0.3236,0.3339,0.3451,0.3498,0.3523,0.3644,0.3647,0.3675,0.3618,0.3534,0.3439,0.334,0.3794,0.3797,0.38,0,0.2483,0.2491,0.2552,0.2559,0.2586,0.2625,0.2648,0.2751,0.2794,0.2954,0.2976,0.3146,0.3262,0.3504,0.3647,0.3809,0.3622,0.3882,0.3805,0.3639,0.3565,0.3386,0.3293,0.3851,0.3854,0.3856,0.3858,0,0.2421,0.2443,0.2465,0.2487,0.2505,0.2535,0.2585,0.2625,0.2756,0.2843,0.2979,0.3097,0.3382,0.357,0.3816,0.3913,0.3716,0.3934,0.3746,0.3605,0.3419,0.333,0.3741,0.3878,0.3876,0.3875,0.3874,0.3873,0.236,0.2358,0.2386,0.24,0.242,0.2439,0.2451,0.2538,0.263,0.2772,0.2925,0.31,0.3427,0.3794,0.3887,0.3996,0.3852,0.3902,0.3821,0.3656,0.3527,0.4007,0.4182,0.4182,0.4182,0.4182,0.4181,0,0.2271,0.2281,0.2292,0.2306,0.2295,0.2341,0.2392,0.2416,0.251,0.2707,0.2854,0.3169,0.3434,0.3683,0.3937,0.3864,0.3714,0.3735,0.3432,0.3349,0.3785,0.3752,0.386,0.386,0.386,0.386,0.386,0.3861,0.2221,0.2203,0.2217,0.2177,0.2184,0.2157,0.2177,0.2251,0.2381,0.2572,0.2737,0.2926,0.3243,0.3572,0.3636,0.3608,0.3273,0.3228,0.3057,0.3315,0.332,0.3324,0.3267,0.3272,0.3271,0.2556,0.2551,0.2546]},{"header":{"parameterUnit":"m.s-1","parameterCategory":2,"la1":30.2991,"la2":30.254,"lo1":-89.0895,"lo2":-89.0444,"dy":0.0017,"dx":0.0017,"nx":28,"ny":28,"refTime":"2025-08-14T03:00:00:Z","depth":"0","parameterNumber":3,"parameterNumberName":"V-component_of_CURRENTS"},"data":[0,0,0,0,0,0,0,0,0,0,0,0,0,0,0,0,0,0,0,0,0,0,0,0,0,0,0,0,0,0,0,0,0,0,0,0,0,0,0,0,0,0,0,0,0,0,0,0,0,0,0,0,0,0,0,0,0,0,-0.1321,-0.1322,0,-0.1444,-0.1445,-0.1446,-0.153,-0.1531,-0.1531,-0.1532,-0.1672,-0.1675,-0.1678,0,0,0,0,0,0,0,0,0,0,0,0,0,-0.1189,-0.119,-0.1321,-0.1322,-0.1324,-0.1443,-0.1445,-0.1447,-0.153,-0.1531,-0.1531,-0.1532,-0.167,-0.1674,-0.1678,0,0,0,0,0,0,0,0,0,0,0,0,0,-0.1272,-0.1191,-0.1321,-0.138,-0.1386,-0.1443,-0.1445,-0.1447,-0.153,-0.1531,-0.1531,-0.1532,-0.1669,-0.1674,-0.1679,-0.1689,0,0,-0.1693,-0.1695,0,0,0,0,0,0,0,0,-0.1267,-0.1277,-0.137,-0.1376,-0.1383,-0.1472,-0.145,-0.1529,-0.1529,-0.1475,-0.1532,-0.1533,-0.1606,-0.1616,-0.1637,-0.1696,-0.1702,-0.1693,-0.1696,-0.1698,-0.17,0,0,0,0,0,0,0,-0.1261,-0.1272,-0.1369,-0.1371,-0.138,-0.1411,-0.1423,-0.1465,-0.1534,-0.148,-0.1486,-0.15,-0.161,-0.1632,-0.1641,-0.1704,-0.1693,-0.1697,-0.17,-0.1702,-0.1786,-0.1785,0,0,0,0,0,0,-0.1244,-0.1266,-0.1366,-0.1373,-0.1326,-0.1412,-0.1426,-0.1443,-0.1534,-0.1548,-0.1499,-0.1503,-0.1623,-0.1635,-0.1646,-0.1656,-0.1698,-0.1703,-0.1705,-0.1787,-0.1786,-0.1785,0,0,0,0,0,0,-0.1241,-0.1252,-0.1361,-0.1322,-0.1338,-0.1413,-0.1431,-0.1445,-0.1469,-0.1548,-0.1563,-0.1509,-0.1624,-0.1639,-0.1677,-0.1663,-0.1705,-0.1709,-0.1787,-0.1786,-0.1786,-0.1682,0,0,0,0,0,0,-0.1236,-0.125,-0.1248,-0.1321,-0.134,-0.1386,-0.1431,-0.1447,-0.1475,-0.1482,-0.1561,-0.1575,-0.1626,-0.167,-0.1682,-0.167,-0.1713,-0.1788,-0.1787,-0.1786,-0.1686,-0.1678,-0.167,0,0,0,0,0,-0.1231,-0.1222,-0.1247,-0.1259,-0.1338,-0.1385,-0.1397,-0.1453,-0.1475,-0.1479,-0.153,-0.1573,-0.1671,-0.1673,-0.1687,-0.1676,-0.1789,-0.1787,-0.1786,-0.169,-0.1679,-0.1671,0,0,0,0,0,0,-0.1151,-0.1232,-0.1261,-0.1274,-0.1323,-0.1399,-0.1404,-0.1444,-0.1489,-0.1491,-0.1567,-0.1584,-0.1612,-0.1657,-0.1657,-0.1697,-0.1736,-0.1738,-0.1658,-0.1649,-0.1641,-0.1613,-0.1717,0,0,0,0,0,-0.1134,-0.1157,-0.1232,-0.1239,-0.1259,-0.1329,-0.1352,-0.1391,-0.1444,-0.1465,-0.1521,-0.1574,-0.1616,-0.1642,-0.1687,-0.1708,-0.173,-0.1711,-0.1703,-0.1696,-0.1682,-0.1708,-0.17,-0.1781,-0.1781,-0.1781,0,0,-0.1101,-0.115,-0.116,-0.1224,-0.1264,-0.1285,-0.1345,-0.1372,-0.1384,-0.1471,-0.1495,-0.1548,-0.1616,-0.164,-0.1657,-0.1677,-0.1679,-0.1694,-0.1687,-0.1678,-0.1706,-0.1698,-0.1691,-0.178,-0.178,-0.178,0,0,-0.1051,-0.1091,-0.1097,-0.1133,-0.1192,-0.124,-0.1244,-0.1315,-0.134,-0.1371,-0.1433,-0.1474,-0.1542,-0.1586,-0.1618,-0.1592,-0.1635,-0.1609,-0.1548,-0.1572,-0.1566,-0.156,-0.155,-0.1544,-0.1606,-0.1606,-0.1606,0,-0.1002,-0.1031,-0.1099,-0.1111,-0.1128,-0.1214,-0.121,-0.1249,-0.1322,-0.1331,-0.1362,-0.1454,-0.1513,-0.1545,-0.1538,-0.1573,-0.1582,-0.1577,-0.156,-0.1555,-0.1551,-0.1542,-0.1537,-0.1601,-0.1601,-0.1602,-0.1602,0,-0.0968,-0.0983,-0.0982,-0.1034,-0.1057,-0.1067,-0.113,-0.1156,-0.1197,-0.1237,-0.1271,-0.1351,-0.1406,-0.1432,-0.1479,-0.1482,-0.1494,-0.1544,-0.1578,-0.1536,-0.153,-0.1527,-0.1593,-0.1595,-0.1597,-0.1598,0,0,-0.0878,-0.0946,-0.0944,-0.0949,-0.1015,-0.1028,-0.1044,-0.1082,-0.108,-0.1148,-0.1143,-0.1228,-0.1273,-0.1311,-0.1379,-0.1404,-0.1382,-0.1452,-0.1456,-0.1429,-0.1403,-0.1348,-0.1339,-0.1428,-0.1427,-0.1427,-0.1399,0,-0.0828,-0.0828,-0.0878,-0.0863,-0.0865,-0.0934,-0.0934,-0.0973,-0.1019,-0.1034,-0.1113,-0.1139,-0.1227,-0.1247,-0.1285,-0.1363,-0.1372,-0.1382,-0.1458,-0.1459,-0.1407,-0.1334,-0.1235,-0.1196,-0.1396,-0.1395,-0.1395,0,-0.078,-0.079,-0.0764,-0.078,-0.0782,-0.078,-0.0797,-0.0811,-0.0861,-0.0884,-0.0937,-0.1008,-0.1061,-0.1137,-0.1233,-0.1234,-0.1299,-0.1358,-0.136,-0.1342,-0.1399,-0.1278,-0.1184,-0.1335,-0.1391,-0.1391,-0.1391,0,-0.0691,-0.0706,-0.068,-0.0686,-0.0718,-0.0703,-0.0717,-0.0757,-0.0747,-0.079,-0.0779,-0.0877,-0.0905,-0.1013,-0.1143,-0.1186,-0.1225,-0.1309,-0.1315,-0.1312,-0.1258,-0.125,-0.1309,-0.1354,-0.1354,-0.1354,-0.1355,0,-0.0627,-0.0604,-0.0632,-0.0616,-0.0566,-0.0611,-0.0562,-0.0595,-0.0606,-0.0568,-0.0689,-0.0676,-0.0876,-0.094,-0.1074,-0.1155,-0.1173,-0.1271,-0.1294,-0.1216,-0.1205,-0.1363,-0.1489,-0.1353,-0.1354,-0.1354,-0.1354,0,-0.0541,-0.0564,-0.0529,-0.0533,-0.0525,-0.0484,-0.0461,-0.0432,-0.0451,-0.0406,-0.0409,-0.0508,-0.0581,-0.0755,-0.0913,-0.104,-0.1201,-0.1172,-0.1044,-0.1052,-0.1215,-0.1338,-0.1394,-0.1462,-0.1175,-0.1173,-0.1172,0,-0.0503,-0.0477,-0.0451,-0.0418,-0.0415,-0.0367,-0.0332,-0.0347,-0.031,-0.0295,-0.0254,-0.0316,-0.0331,-0.0517,-0.0731,-0.0906,-0.1102,-0.0964,-0.1043,-0.1173,-0.1329,-0.1404,-0.1465,-0.0925,-0.0922,-0.0919,-0.0917,0,-0.0425,-0.0411,-0.0382,-0.0314,-0.0266,-0.0207,-0.0155,-0.01,-0.01,-0.0037,0.0025,0.0018,-0.0147,-0.0261,-0.0506,-0.0669,-0.104,-0.0914,-0.1093,-0.1155,-0.1197,-0.1288,-0.0987,-0.0893,-0.0896,-0.0897,-0.0899,-0.09,-0.0362,-0.0319,-0.0277,-0.0207,-0.0146,-0.0055,0.0024,0.0099,0.0207,0.034,0.0291,0.0407,0.0173,-0.0134,-0.0399,-0.0788,-0.0876,-0.092,-0.1058,-0.112,-0.1183,-0.0802,-0.0718,-0.072,-0.0721,-0.0722,-0.0723,0,-0.0297,-0.0253,-0.018,-0.0092,0.0003,0.0012,0.0135,0.0243,0.0413,0.0591,0.0699,0.0765,0.0467,0.0074,-0.0455,-0.0834,-0.102,-0.1069,-0.1179,-0.1241,-0.0919,-0.0906,-0.0805,-0.0805,-0.0805,-0.0805,-0.0805,-0.0805,-0.0264,-0.0186,-0.0147,0.0018,0.0093,0.0241,0.0328,0.0504,0.0675,0.0987,0.1185,0.1272,0.1012,-0.0049,-0.081,-0.1041,-0.138,-0.1403,-0.162,-0.1438,-0.1436,-0.1434,-0.145,-0.1465,-0.1466,-0.1837,-0.1842,-0.1845]}],[{"header":{"parameterUnit":"m.s-1","parameterCategory":2,"la1":30.2991,"la2":30.254,"lo1":-89.0895,"lo2":-89.0444,"dy":0.0017,"dx":0.0017,"nx":28,"ny":28,"refTime":"2025-08-14T03:00:00:Z","depth":"2","parameterNumber":2,"parameterNumberName":"U-component_of_CURRENTS"},"data":[0,0,0,0,0,0,0,0,0,0,0,0,0,0,0,0,0,0,0,0,0,0,0,0,0,0,0,0,0,0,0,0,0,0,0,0,0,0,0,0,0,0,0,0,0,0,0,0,0,0,0,0,0,0,0,0,0,0,0.2086,0.2087,0,0.2145,0.2146,0.2146,0.2154,0.2154,0.2153,0.2153,0.2179,0.218,0.2182,0,0,0,0,0,0,0,0,0,0,0,0,0,0.2021,0.2022,0.2086,0.2087,0.2087,0.2145,0.2146,0.2146,0.2154,0.2154,0.2153,0.2153,0.2179,0.218,0.2182,0,0,0,0,0,0,0,0,0,0,0,0,0,0.2061,0.2022,0.2086,0.2099,0.2101,0.2145,0.2146,0.2147,0.2154,0.2154,0.2153,0.2152,0.2178,0.218,0.2182,0.2206,0,0,0.2187,0.2188,0,0,0,0,0,0,0,0,0.2058,0.2063,0.2096,0.2098,0.21,0.2142,0.2133,0.2165,0.2154,0.2133,0.2153,0.2152,0.2165,0.2168,0.218,0.2207,0.2209,0.2187,0.2188,0.2189,0.2189,0,0,0,0,0,0,0,0.2056,0.2061,0.2108,0.2097,0.21,0.2117,0.2121,0.2139,0.2151,0.2135,0.2136,0.2144,0.2166,0.2178,0.218,0.2209,0.2187,0.2189,0.219,0.219,0.2309,0.2312,0,0,0,0,0,0,0.2049,0.2058,0.2106,0.211,0.2079,0.2118,0.2123,0.2129,0.2151,0.2155,0.2145,0.2144,0.2175,0.2178,0.2181,0.2255,0.2189,0.2191,0.2192,0.2307,0.231,0.2312,0,0,0,0,0,0,0.2048,0.2053,0.2104,0.2086,0.2094,0.212,0.2126,0.213,0.2155,0.216,0.2162,0.2166,0.2175,0.2179,0.2219,0.2254,0.2191,0.2193,0.2305,0.2308,0.2311,0.2375,0,0,0,0,0,0,0.2045,0.2052,0.2061,0.2086,0.2095,0.2142,0.2127,0.2132,0.2161,0.2161,0.2179,0.218,0.2175,0.2217,0.2221,0.2256,0.2194,0.2302,0.2306,0.231,0.237,0.238,0.2389,0,0,0,0,0,0.2043,0.2059,0.2061,0.2067,0.2104,0.2144,0.215,0.2165,0.2163,0.2183,0.2199,0.218,0.2245,0.222,0.2225,0.226,0.23,0.2305,0.231,0.2366,0.2378,0.2388,0,0,0,0,0,0,0.2043,0.2062,0.2065,0.2087,0.2118,0.2145,0.2167,0.2178,0.2207,0.2209,0.2208,0.2211,0.2261,0.2256,0.2229,0.2308,0.227,0.2276,0.2311,0.2323,0.2332,0.2339,0.2196,0,0,0,0,0,0.2045,0.2058,0.2085,0.2106,0.2122,0.2148,0.2168,0.2181,0.2207,0.222,0.223,0.225,0.2284,0.2299,0.232,0.2363,0.2385,0.239,0.24,0.2407,0.2418,0.2488,0.2505,0.2328,0.2328,0.2328,0,0,0.205,0.2065,0.2071,0.2107,0.213,0.2163,0.2158,0.2197,0.223,0.2218,0.2264,0.2283,0.2304,0.2355,0.2376,0.2354,0.2472,0.2413,0.242,0.2426,0.2495,0.2512,0.2527,0.2331,0.2331,0.233,0,0,0.2066,0.2082,0.2097,0.2126,0.2166,0.2186,0.2201,0.2236,0.2259,0.2306,0.2314,0.2361,0.2392,0.2427,0.2446,0.2522,0.252,0.2523,0.2573,0.2642,0.2657,0.267,0.2731,0.2749,0.2525,0.2525,0.2526,0,0.2073,0.2092,0.2112,0.2141,0.2168,0.2198,0.223,0.2267,0.2312,0.2345,0.2327,0.2419,0.2432,0.2519,0.2543,0.2544,0.2576,0.2526,0.2654,0.2667,0.268,0.2738,0.2758,0.2529,0.2529,0.2528,0.2528,0,0.2097,0.2121,0.214,0.2179,0.2215,0.2251,0.2299,0.2341,0.2366,0.2402,0.2486,0.2515,0.2567,0.2586,0.2586,0.2689,0.2681,0.2658,0.2623,0.2701,0.2758,0.2777,0.2534,0.2533,0.2532,0.2531,0,0,0.2083,0.2141,0.2147,0.217,0.2237,0.2266,0.2338,0.2411,0.2461,0.2514,0.2581,0.2657,0.2673,0.2698,0.2713,0.2774,0.2892,0.2754,0.2756,0.2809,0.3046,0.2981,0.2996,0.2888,0.2892,0.2894,0.3053,0,0.2095,0.2142,0.2175,0.223,0.2259,0.2318,0.2378,0.2453,0.2513,0.2585,0.2654,0.2715,0.2717,0.2739,0.2811,0.2866,0.2943,0.2851,0.2965,0.2969,0.2899,0.3016,0.2672,0.2779,0.3071,0.3075,0.3077,0,0.21,0.2132,0.2179,0.2249,0.2268,0.2308,0.241,0.247,0.2592,0.2637,0.2729,0.2771,0.2884,0.2852,0.3023,0.2963,0.3018,0.3059,0.3066,0.2995,0.294,0.2747,0.2802,0.3108,0.3106,0.3103,0.3101,0,0.2065,0.2133,0.2166,0.2192,0.2278,0.2316,0.2368,0.2485,0.2548,0.2669,0.2721,0.2854,0.2912,0.3016,0.3115,0.3073,0.3291,0.3237,0.3245,0.324,0.2965,0.293,0.3371,0.3371,0.3371,0.337,0.337,0,0.2058,0.2085,0.2148,0.2166,0.2212,0.2287,0.2357,0.2432,0.255,0.2637,0.2736,0.2823,0.2955,0.3087,0.3162,0.3278,0.3339,0.3288,0.329,0.2979,0.2945,0.3231,0.3212,0.3376,0.3375,0.3374,0.3373,0,0.2017,0.2059,0.2094,0.217,0.2192,0.2224,0.2327,0.2385,0.25,0.2616,0.2653,0.2827,0.3,0.3144,0.3321,0.3327,0.3441,0.3466,0.3094,0.305,0.3331,0.3314,0.3484,0.3483,0.3483,0.3482,0.3482,0,0.2004,0.2016,0.2073,0.2086,0.2116,0.2173,0.2216,0.2339,0.2409,0.2621,0.2673,0.2873,0.299,0.3231,0.3237,0.3357,0.3502,0.316,0.3018,0.3364,0.335,0.3333,0.3318,0.2683,0.2677,0.2671,0.2666,0,0.1974,0.1987,0.2009,0.2029,0.206,0.2096,0.2172,0.222,0.2384,0.2494,0.2659,0.2765,0.293,0.2885,0.3026,0.3051,0.3104,0.3051,0.3527,0.2709,0.2622,0.2604,0.2612,0.2616,0.2621,0.2625,0.2628,0.263,0.1943,0.194,0.1955,0.1972,0.1993,0.2005,0.2028,0.2124,0.2219,0.2315,0.2486,0.2532,0.2571,0.257,0.2594,0.2626,0.2822,0.2746,0.2758,0.2777,0.2657,0.2574,0.2537,0.2541,0.2545,0.2548,0.2551,0,0.1903,0.1897,0.1903,0.1907,0.1896,0.1933,0.199,0.1982,0.2061,0.2107,0.2176,0.1993,0.1973,0.2121,0.2026,0.2074,0.1986,0.2091,0.1936,0.1986,0.203,0.1867,0.1541,0.1539,0.1536,0.1535,0,0,0.188,0.186,0.1857,0.1813,0.1812,0.1779,0.1796,0.176,0.1771,0.171,0.168,0.1694,0.191,0.1609,0.1629,0.159,0.1765,0.1532,0.2323,0.2178,0.2219,0.238,0.2183,0,0,0,0,0]},{"header":{"parameterUnit":"m.s-1","parameterCategory":2,"la1":30.2991,"la2":30.254,"lo1":-89.0895,"lo2":-89.0444,"dy":0.0017,"dx":0.0017,"nx":28,"ny":28,"refTime":"2025-08-14T03:00:00:Z","depth":"2","parameterNumber":3,"parameterNumberName":"V-component_of_CURRENTS"},"data":[0,0,0,0,0,0,0,0,0,0,0,0,0,0,0,0,0,0,0,0,0,0,0,0,0,0,0,0,0,0,0,0,0,0,0,0,0,0,0,0,0,0,0,0,0,0,0,0,0,0,0,0,0,0,0,0,0,0,0.0678,0.0677,0,0.0555,0.0553,0.0552,0.0464,0.0463,0.0463,0.0462,0.0327,0.0324,0.0321,0,0,0,0,0,0,0,0,0,0,0,0,0,0.0773,0.0773,0.0678,0.0677,0.0675,0.0555,0.0553,0.0552,0.0464,0.0463,0.0462,0.0462,0.0328,0.0324,0.0321,0,0,0,0,0,0,0,0,0,0,0,0,0,0.07,0.0772,0.0678,0.0617,0.061,0.0555,0.0553,0.0551,0.0464,0.0463,0.0462,0.0461,0.0329,0.0325,0.032,0.0315,0,0,0.0307,0.0305,0,0,0,0,0,0,0,0,0.0704,0.0696,0.0627,0.0621,0.0613,0.0524,0.0537,0.0472,0.0465,0.052,0.0462,0.0461,0.0392,0.0383,0.0362,0.0308,0.0303,0.0307,0.0304,0.0302,0.0301,0,0,0,0,0,0,0,0.0709,0.0701,0.0629,0.0626,0.0617,0.0573,0.0562,0.0524,0.0463,0.0515,0.0508,0.0495,0.0388,0.0367,0.0358,0.0301,0.0307,0.0303,0.03,0.0298,0.0214,0.0215,0,0,0,0,0,0,0.0729,0.0706,0.0633,0.0626,0.0657,0.0573,0.056,0.0554,0.0464,0.0449,0.0496,0.0491,0.0375,0.0363,0.0353,0.033,0.0302,0.0298,0.0295,0.0214,0.0214,0.0215,0,0,0,0,0,0,0.0732,0.0724,0.0638,0.0662,0.0648,0.0573,0.0565,0.0552,0.0523,0.0449,0.0434,0.048,0.0373,0.0359,0.0319,0.0325,0.0296,0.0292,0.0213,0.0214,0.0214,0.0292,0,0,0,0,0,0,0.0735,0.0726,0.0725,0.0664,0.0648,0.0616,0.0566,0.055,0.0516,0.0509,0.0431,0.0418,0.0371,0.0326,0.0315,0.0318,0.0289,0.0213,0.0214,0.0214,0.0289,0.0295,0.03,0,0,0,0,0,0.0739,0.0743,0.0726,0.0717,0.0651,0.0617,0.0605,0.0546,0.0517,0.0514,0.0458,0.042,0.0323,0.0323,0.031,0.0312,0.0212,0.0213,0.0214,0.0286,0.0293,0.03,0,0,0,0,0,0,0.0769,0.0732,0.0713,0.0701,0.0668,0.0602,0.0587,0.0552,0.0505,0.0493,0.0424,0.0408,0.0374,0.0336,0.0338,0.029,0.0262,0.026,0.0321,0.0327,0.0333,0.0348,0.0285,0,0,0,0,0,0.0782,0.0782,0.0735,0.0726,0.0713,0.0653,0.0629,0.0595,0.0545,0.0522,0.0465,0.0409,0.037,0.0343,0.0301,0.0276,0.0237,0.0269,0.0275,0.028,0.0283,0.0229,0.023,0.0218,0.0218,0.0218,0,0,0.0787,0.0769,0.0765,0.0734,0.07,0.0692,0.0636,0.0608,0.0597,0.0517,0.0479,0.0428,0.0368,0.0338,0.032,0.0305,0.0266,0.0281,0.0286,0.0286,0.023,0.0231,0.0232,0.0218,0.0218,0.0218,0,0,0.0809,0.0788,0.0799,0.0782,0.0746,0.0716,0.0714,0.0654,0.0623,0.0587,0.0528,0.0486,0.0413,0.0377,0.0349,0.0364,0.03,0.0344,0.038,0.0328,0.0329,0.0329,0.0294,0.029,0.0345,0.0345,0.0345,0,0.0812,0.0821,0.0794,0.0802,0.0788,0.0735,0.0739,0.0709,0.0642,0.0625,0.0586,0.0486,0.0435,0.0407,0.0403,0.0378,0.0335,0.0361,0.0336,0.0335,0.0333,0.0298,0.0293,0.0349,0.0348,0.0348,0.0347,0,0.0846,0.085,0.0853,0.0852,0.0841,0.0833,0.0797,0.0777,0.073,0.0694,0.0646,0.057,0.0504,0.0488,0.0443,0.0413,0.0382,0.0352,0.0321,0.0339,0.0301,0.0294,0.0354,0.0353,0.0352,0.0351,0,0,0.085,0.0873,0.0871,0.088,0.0864,0.0855,0.0855,0.0834,0.0827,0.0761,0.0736,0.0663,0.0604,0.0569,0.0507,0.0464,0.0418,0.04,0.0395,0.0371,0.0303,0.0301,0.0293,0.0371,0.037,0.0369,0.0285,0,0.0875,0.091,0.0912,0.0933,0.0943,0.0915,0.0918,0.0898,0.086,0.0826,0.0757,0.0695,0.064,0.0584,0.0543,0.0444,0.04,0.0444,0.0284,0.028,0.028,0.0286,0.0216,0.0137,0.0278,0.0277,0.0276,0,0.0904,0.0923,0.0951,0.0974,0.0974,0.0966,0.0959,0.0955,0.0921,0.0884,0.0829,0.0759,0.0684,0.0621,0.0486,0.0508,0.0409,0.0341,0.0335,0.0301,0.0265,0.0137,0.0118,0.0264,0.0265,0.0266,0.0267,0,0.0923,0.0949,0.0971,0.0975,0.0991,0.0978,0.0969,0.0954,0.0951,0.0891,0.0866,0.0787,0.0701,0.0597,0.0456,0.0448,0.0314,0.0284,0.0201,0.02,0.0095,0.0087,0.0184,0.0184,0.0184,0.0185,0.0185,0,0.0956,0.0971,0.0965,0.0976,0.098,0.0979,0.0973,0.0962,0.0941,0.0953,0.0866,0.085,0.0678,0.0588,0.0475,0.0328,0.0321,0.021,0.0176,0.0123,0.0119,0.0188,0.019,0.0181,0.0182,0.0183,0.0183,0,0.0983,0.0985,0.1007,0.1005,0.0988,0.0982,0.0961,0.0977,0.0939,0.0944,0.0913,0.0852,0.0744,0.0605,0.043,0.0332,0.0206,0.015,0.0114,0.0079,0.0125,0.0131,0.0051,0.005,0.0049,0.0049,0.0048,0,0.1006,0.1017,0.1014,0.1011,0.0994,0.0972,0.0976,0.0958,0.0993,0.0973,0.1,0.0879,0.088,0.0645,0.038,0.0179,0.02,0.0008,-0.0012,0.0135,0.0109,0.0117,0.0124,-0.0125,-0.0126,-0.0128,-0.0129,0,0.1045,0.1032,0.1056,0.1047,0.1032,0.1039,0.1041,0.1081,0.1094,0.1129,0.119,0.1183,0.0892,0.065,0.0325,0.019,0.0041,-0.0026,0.0102,-0.0059,-0.0032,-0.0056,-0.0043,-0.0143,-0.0141,-0.014,-0.014,-0.0139,0.1065,0.1083,0.11,0.1094,0.1081,0.1116,0.1157,0.1218,0.1312,0.1347,0.1342,0.1278,0.0928,0.0478,0.0221,-0.009,-0.005,-0.0142,-0.0138,-0.0131,-0.0116,-0.009,-0.0208,-0.0207,-0.0206,-0.0205,-0.0205,0,0.1096,0.1114,0.1137,0.1149,0.1167,0.1124,0.1216,0.1302,0.1454,0.1413,0.144,0.111,0.0815,0.0464,-0.0049,-0.0282,-0.0316,-0.0314,-0.0329,-0.0315,-0.0303,-0.0296,-0.0436,-0.0437,-0.0438,-0.0438,0,0,0.1113,0.1156,0.1178,0.122,0.1207,0.1249,0.131,0.1434,0.1466,0.1478,0.135,0.1179,0.0802,0.0396,0.0045,-0.0202,-0.0188,-0.0239,-0.0041,-0.0009,0.0007,-0.0207,-0.018,0,0,0,0,0]}],[{"header":{"parameterUnit":"m.s-1","parameterCategory":2,"la1":30.2991,"la2":30.254,"lo1":-89.0895,"lo2":-89.0444,"dy":0.0017,"dx":0.0017,"nx":28,"ny":28,"refTime":"2025-08-14T03:00:00:Z","depth":"4","parameterNumber":2,"parameterNumberName":"U-component_of_CURRENTS"},"data":[0,0,0,0,0,0,0,0,0,0,0,0,0,0,0,0,0,0,0,0,0,0,0,0,0,0,0,0,0,0,0,0,0,0,0,0,0,0,0,0,0,0,0,0,0,0,0,0,0,0,0,0,0,0,0,0,0,0,0.0749,0.075,0,0.0772,0.0772,0.0773,0.0791,0.0791,0.0791,0.0791,0.0869,0.0871,0.0873,0,0,0,0,0,0,0,0,0,0,0,0,0,0.0707,0.0708,0.0749,0.075,0.075,0.0772,0.0772,0.0773,0.0791,0.0791,0.0791,0.0791,0.0868,0.0871,0.0873,0,0,0,0,0,0,0,0,0,0,0,0,0,0.0728,0.0708,0.0749,0.0761,0.0763,0.0772,0.0772,0.0773,0.0791,0.0791,0.0791,0.0791,0.0868,0.0871,0.0873,0.0886,0,0,0.0882,0.0883,0,0,0,0,0,0,0,0,0.0726,0.0729,0.0759,0.0761,0.0762,0.0779,0.0786,0.0813,0.0791,0.078,0.0791,0.0792,0.0844,0.0848,0.0852,0.089,0.0893,0.0882,0.0884,0.0885,0.0886,0,0,0,0,0,0,0,0.0725,0.0728,0.0759,0.076,0.0761,0.0761,0.0764,0.0791,0.0812,0.0781,0.0783,0.0785,0.0845,0.0849,0.0854,0.0895,0.0882,0.0885,0.0887,0.0888,0.0978,0.0978,0,0,0,0,0,0,0.0722,0.0727,0.0758,0.0759,0.0744,0.0761,0.0765,0.0773,0.081,0.0815,0.0784,0.0785,0.0844,0.0851,0.0857,0.0914,0.0885,0.0888,0.089,0.0977,0.0978,0.0978,0,0,0,0,0,0,0.0721,0.0725,0.0757,0.0743,0.0747,0.0762,0.0771,0.0774,0.0801,0.0812,0.0818,0.0812,0.0844,0.0853,0.0895,0.0916,0.0889,0.0892,0.0976,0.0977,0.0978,0.1003,0,0,0,0,0,0,0.072,0.0725,0.0737,0.0743,0.0748,0.0776,0.0771,0.0774,0.08,0.0802,0.0837,0.0843,0.0845,0.089,0.0898,0.0919,0.0894,0.0975,0.0977,0.0978,0.1002,0.1005,0.1008,0,0,0,0,0,0.0719,0.0729,0.0738,0.0742,0.0762,0.0777,0.078,0.0791,0.0802,0.0817,0.0838,0.0843,0.0903,0.0894,0.0902,0.0925,0.0975,0.0976,0.0978,0.1,0.1004,0.1008,0,0,0,0,0,0,0.0714,0.0732,0.0741,0.0757,0.0774,0.0781,0.0797,0.0807,0.0835,0.0846,0.0858,0.0865,0.0903,0.0914,0.0903,0.0952,0.0938,0.0941,0.0952,0.0956,0.0959,0.0986,0.0897,0,0,0,0,0,0.072,0.0739,0.0752,0.0769,0.078,0.0796,0.0808,0.0817,0.0837,0.0851,0.0874,0.0896,0.0911,0.0935,0.0947,0.0988,0.0989,0.1006,0.1009,0.1011,0.1038,0.1038,0.1043,0.0983,0.0983,0.0983,0,0,0.0725,0.0737,0.0749,0.0771,0.0788,0.0808,0.0805,0.0831,0.0851,0.0856,0.0902,0.091,0.0922,0.0953,0.0972,0.0971,0.1027,0.1013,0.1016,0.1042,0.104,0.1046,0.1051,0.0984,0.0984,0.0984,0,0,0.0735,0.0757,0.0774,0.0792,0.0819,0.0831,0.0846,0.0869,0.0886,0.093,0.0923,0.0949,0.0994,0.0994,0.1002,0.1036,0.1035,0.104,0.1092,0.109,0.1095,0.11,0.1098,0.1102,0.1051,0.1051,0.1051,0,0.0736,0.0764,0.0782,0.0801,0.0821,0.0847,0.0869,0.0889,0.0924,0.0944,0.0955,0.1004,0.1014,0.1037,0.105,0.1045,0.1046,0.1075,0.1095,0.1099,0.1104,0.11,0.1105,0.1053,0.1052,0.1052,0.1052,0,0.0759,0.0785,0.0801,0.0838,0.0858,0.0888,0.0912,0.0949,0.0984,0.1001,0.1046,0.1056,0.109,0.1087,0.1092,0.1121,0.1112,0.1088,0.1085,0.1111,0.1106,0.111,0.1055,0.1054,0.1054,0.1053,0,0,0.0746,0.0804,0.0811,0.0839,0.0883,0.0904,0.0949,0.0992,0.1037,0.107,0.112,0.1142,0.1157,0.1167,0.1158,0.1171,0.1195,0.1162,0.1161,0.116,0.1199,0.1156,0.1156,0.1176,0.1177,0.1178,0.1179,0,0.076,0.08,0.0828,0.0882,0.0907,0.0952,0.0991,0.1034,0.1084,0.1141,0.1153,0.12,0.1179,0.1212,0.1215,0.1191,0.121,0.1198,0.1175,0.1175,0.1133,0.1161,0.1182,0.1182,0.1183,0.1184,0.1184,0,0.0766,0.0797,0.0842,0.091,0.0928,0.0973,0.1058,0.1101,0.1172,0.1211,0.1256,0.1272,0.1292,0.1284,0.1264,0.1258,0.1254,0.1238,0.1236,0.1198,0.114,0.1154,0.1192,0.1191,0.119,0.119,0.119,0,0.0737,0.0806,0.0847,0.0871,0.0949,0.0998,0.1056,0.1131,0.1176,0.1274,0.1323,0.1333,0.1366,0.1338,0.131,0.1297,0.1293,0.1254,0.1213,0.1209,0.1235,0.123,0.1278,0.1278,0.1278,0.1278,0.1278,0,0.0726,0.0766,0.0852,0.0876,0.0944,0.1008,0.1092,0.1158,0.1249,0.1292,0.1364,0.1387,0.1391,0.1383,0.1336,0.128,0.1304,0.1241,0.1213,0.1243,0.124,0.1237,0.1232,0.1278,0.1278,0.1278,0.1278,0,0.0687,0.0737,0.0796,0.0895,0.0929,0.0988,0.1107,0.1168,0.1269,0.1332,0.1369,0.1441,0.1426,0.1413,0.138,0.1322,0.1266,0.1255,0.1304,0.1275,0.1177,0.1173,0.1193,0.1191,0.119,0.1189,0.1188,0,0.0666,0.0692,0.0797,0.0834,0.0891,0.0985,0.1042,0.116,0.121,0.1325,0.1337,0.1407,0.1423,0.1329,0.1329,0.126,0.1252,0.1238,0.1207,0.1201,0.1172,0.117,0.1168,0.1187,0.1186,0.1186,0.1186,0,0.0633,0.0682,0.0731,0.0798,0.087,0.093,0.1022,0.1045,0.1162,0.1265,0.1276,0.1292,0.1302,0.127,0.1269,0.1204,0.1239,0.1225,0.1227,0.1197,0.1193,0.1165,0.1165,0.1182,0.1182,0.1183,0.1183,0,0.0607,0.0637,0.0698,0.0755,0.0822,0.0847,0.0907,0.0961,0.1019,0.1147,0.1132,0.1192,0.1262,0.1242,0.1199,0.1176,0.1152,0.1112,0.1119,0.1124,0.1104,0.1089,0.1037,0,0,0,0,0,0.0582,0.0607,0.0649,0.0695,0.0754,0.0786,0.0873,0.0933,0.1033,0.1013,0.1073,0.1066,0.1075,0.1109,0.1066,0.1167,0.115,0.1117,0.1106,0.116,0.1164,0.115,0,0,0,0,0,0,0.0563,0.0602,0.0624,0.0621,0.0639,0.0689,0.0734,0.0807,0.0798,0.0907,0.0906,0.1012,0.1019,0.1068,0.1043,0.1055,0.1032,0.1166,0.1164,0.1157,0.1161,0.1165,0.1152,0,0,0,0,0]},{"header":{"parameterUnit":"m.s-1","parameterCategory":2,"la1":30.2991,"la2":30.254,"lo1":-89.0895,"lo2":-89.0444,"dy":0.0017,"dx":0.0017,"nx":28,"ny":28,"refTime":"2025-08-14T03:00:00:Z","depth":"4","parameterNumber":3,"parameterNumberName":"V-component_of_CURRENTS"},"data":[0,0,0,0,0,0,0,0,0,0,0,0,0,0,0,0,0,0,0,0,0,0,0,0,0,0,0,0,0,0,0,0,0,0,0,0,0,0,0,0,0,0,0,0,0,0,0,0,0,0,0,0,0,0,0,0,0,0,0.0202,0.0202,0,0.0155,0.0155,0.0154,0.0139,0.014,0.014,0.014,0.0092,0.009,0.0089,0,0,0,0,0,0,0,0,0,0,0,0,0,0.0247,0.0246,0.0203,0.0202,0.0201,0.0155,0.0155,0.0154,0.0139,0.014,0.014,0.014,0.0092,0.0091,0.0089,0,0,0,0,0,0,0,0,0,0,0,0,0,0.0217,0.0246,0.0203,0.0188,0.0186,0.0155,0.0155,0.0154,0.0139,0.014,0.014,0.014,0.0093,0.0091,0.0089,0.007,0,0,0.0082,0.0081,0,0,0,0,0,0,0,0,0.0219,0.0215,0.0191,0.0189,0.0187,0.0153,0.0152,0.0125,0.0139,0.0158,0.014,0.014,0.0112,0.0108,0.0099,0.0067,0.0065,0.0082,0.008,0.0079,0.0079,0,0,0,0,0,0,0,0.0221,0.0217,0.0184,0.019,0.0188,0.0172,0.0169,0.0147,0.0134,0.0156,0.0155,0.0149,0.0111,0.0101,0.0098,0.0064,0.0082,0.008,0.0078,0.0078,-0.0006,-0.0007,0,0,0,0,0,0,0.0227,0.0219,0.0186,0.0183,0.0203,0.0171,0.0167,0.0164,0.0134,0.013,0.0148,0.0148,0.0105,0.01,0.0096,0.0065,0.0079,0.0077,0.0076,-0.0006,-0.0007,-0.0008,0,0,0,0,0,0,0.0228,0.0225,0.0188,0.0199,0.0194,0.0171,0.0167,0.0163,0.0158,0.0128,0.0124,0.0148,0.0105,0.0099,0.0073,0.0063,0.0076,0.0074,-0.0004,-0.0006,-0.0007,0.0006,0,0,0,0,0,0,0.023,0.0225,0.0228,0.02,0.0193,0.0173,0.0166,0.0162,0.0153,0.0152,0.0126,0.0122,0.0105,0.0076,0.0071,0.006,0.0073,-0.0003,-0.0005,-0.0007,0.0007,0.0005,0.0004,0,0,0,0,0,0.0231,0.0234,0.0228,0.0224,0.0196,0.0173,0.0168,0.0153,0.0153,0.0149,0.0127,0.0123,0.0061,0.0074,0.0068,0.0056,-0.0002,-0.0005,-0.0007,0.0008,0.0006,0.0004,0,0,0,0,0,0,0.0254,0.0231,0.0225,0.022,0.02,0.017,0.0168,0.0156,0.0136,0.0138,0.0113,0.0106,0.0077,0.0063,0.0078,0.0025,0.0028,0.0024,0.004,0.0038,0.0037,0.0048,0.0071,0,0,0,0,0,0.0259,0.0258,0.0229,0.0227,0.0219,0.0195,0.0185,0.0173,0.015,0.0143,0.012,0.0093,0.0061,0.005,0.0021,-0.0003,-0.0021,-0.0016,-0.0018,-0.0019,-0.0016,-0.0059,-0.0063,-0.0014,-0.0014,-0.0014,0,0,0.0268,0.0256,0.0255,0.0232,0.0218,0.0205,0.0191,0.0178,0.0164,0.014,0.0117,0.0088,0.0053,0.0021,0.0007,0.0011,-0.0043,-0.0021,-0.0022,-0.0018,-0.0061,-0.0066,-0.007,-0.0016,-0.0016,-0.0015,0,0,0.0282,0.0274,0.0275,0.0259,0.0237,0.0219,0.0217,0.0186,0.0172,0.0144,0.0117,0.0081,0.0043,0.0009,-0.0011,-0.0037,-0.0051,-0.0045,-0.004,-0.0081,-0.0085,-0.0089,-0.0116,-0.0122,-0.0043,-0.0043,-0.0043,0,0.0292,0.0291,0.0271,0.0264,0.0254,0.0228,0.0221,0.0199,0.0161,0.0146,0.0141,0.0065,0.0035,-0.0012,-0.0025,-0.004,-0.0058,-0.0027,-0.0082,-0.0086,-0.009,-0.0116,-0.0123,-0.0042,-0.0042,-0.0042,-0.0042,0,0.0303,0.0301,0.0301,0.0285,0.0268,0.0261,0.0226,0.021,0.019,0.016,0.0112,0.0064,0.0023,-0.0,-0.002,-0.0068,-0.007,-0.0079,-0.0072,-0.0094,-0.0121,-0.0128,-0.0042,-0.0042,-0.0042,-0.0042,0,0,0.0327,0.0313,0.0314,0.0314,0.028,0.0271,0.0247,0.0214,0.0208,0.0155,0.0128,0.0059,0.0035,0.0009,-0.0027,-0.0069,-0.0118,-0.0082,-0.0084,-0.0098,-0.0199,-0.0181,-0.0187,-0.0134,-0.0136,-0.0137,-0.0205,0,0.0343,0.0344,0.0327,0.0327,0.0323,0.0293,0.0275,0.024,0.0211,0.0178,0.0109,0.0077,0.0037,0.0027,-0.003,-0.01,-0.0138,-0.0098,-0.0185,-0.0187,-0.016,-0.0195,-0.0141,-0.021,-0.0212,-0.0213,-0.0214,0,0.0355,0.0356,0.0363,0.0352,0.0349,0.035,0.033,0.0312,0.0253,0.0228,0.0174,0.0125,0.0044,0.0025,-0.0106,-0.0077,-0.0133,-0.0185,-0.0189,-0.018,-0.0183,-0.0188,-0.0228,-0.0227,-0.0226,-0.0225,-0.0224,0,0.0381,0.0379,0.0393,0.0389,0.0371,0.0379,0.0375,0.0334,0.0325,0.0275,0.0265,0.0154,0.0115,0.001,-0.0106,-0.0103,-0.0245,-0.0252,-0.0287,-0.0286,-0.0285,-0.0281,-0.033,-0.033,-0.033,-0.033,-0.033,0,0.0394,0.0405,0.0419,0.0427,0.0448,0.0426,0.0445,0.0424,0.0396,0.0381,0.0308,0.0269,0.0112,0.0009,-0.01,-0.0222,-0.0241,-0.0292,-0.0307,-0.0278,-0.0272,-0.029,-0.0285,-0.0332,-0.0332,-0.0331,-0.0331,0,0.0409,0.0416,0.0438,0.0452,0.0462,0.0484,0.0501,0.0512,0.0493,0.0474,0.0463,0.0347,0.0215,0.0063,-0.0112,-0.0193,-0.0319,-0.0348,-0.0301,-0.0311,-0.0332,-0.0325,-0.0398,-0.0398,-0.0398,-0.0398,-0.0398,0,0.041,0.0428,0.0469,0.0491,0.0508,0.0542,0.0562,0.0558,0.0565,0.0514,0.0498,0.0387,0.0292,0.0057,-0.0105,-0.0303,-0.0322,-0.0373,-0.0364,-0.0333,-0.0341,-0.0334,-0.0328,-0.0398,-0.0398,-0.0398,-0.0398,0,0.0415,0.0445,0.0465,0.052,0.0561,0.0589,0.062,0.0629,0.0614,0.061,0.0526,0.0403,0.0256,0.0058,-0.0085,-0.0232,-0.0342,-0.0374,-0.0375,-0.0366,-0.0334,-0.0341,-0.0334,-0.0398,-0.0398,-0.0398,-0.0398,0,0.0418,0.0445,0.0488,0.0534,0.0575,0.0601,0.0625,0.0626,0.0627,0.0583,0.0547,0.0394,0.0299,0.0095,-0.0053,-0.0184,-0.0213,-0.0243,-0.0252,-0.0253,-0.0192,-0.013,-0.0149,0,0,0,0,0,0.0419,0.0452,0.0493,0.0537,0.0579,0.0604,0.0635,0.0654,0.0655,0.0609,0.058,0.0443,0.0229,0.0124,-0.0003,-0.0061,-0.0242,-0.0212,-0.0282,-0.0398,-0.0398,-0.035,0,0,0,0,0,0,0.0415,0.046,0.0488,0.0525,0.0556,0.0599,0.0616,0.0626,0.0595,0.0582,0.0464,0.0428,0.0211,0.0302,-0.0002,-0.0042,-0.0099,-0.0309,-0.0311,-0.0398,-0.0398,-0.0398,-0.0349,0,0,0,0,0]}]]